TimeAKST,TemperatureF,Dew PointF,Humidity,Sea Level PressureIn,VisibilityMPH,Wind Direction,Wind SpeedMPH,Gust SpeedMPH,PrecipitationIn,Events,Conditions,WindDirDegrees,DateUTC
12:53 AM,-9.0,-14.1,79,29.60,9.0,Calm,Calm,-,N/A,Snow,Light Snow,0,2013-11-23 09:53:00
1:24 AM,-9.4,-14.8,77,29.36,9.0,Calm,Calm,-,N/A,,Mostly Cloudy,0,2013-11-23 10:24:00
1:53 AM,-9.0,-14.1,79,29.59,10.0,WSW,3.5,-,N/A,,Mostly Cloudy,250,2013-11-23 10:53:00
3:53 AM,-8.0,-13.0,79,29.53,10.0,Calm,Calm,-,N/A,,Overcast,0,2013-11-23 12:53:00
4:53 AM,-7.1,-11.9,79,29.51,10.0,West,3.5,-,N/A,,Overcast,280,2013-11-23 13:53:00
5:53 AM,-6.0,-11.0,79,29.53,10.0,WNW,4.6,-,N/A,,Overcast,300,2013-11-23 14:53:00
6:53 AM,-5.1,-9.0,83,29.56,10.0,West,3.5,-,N/A,,Overcast,280,2013-11-23 15:53:00
7:20 AM,-4.0,-9.4,78,29.36,2.0,Variable,3.5,-,N/A,Snow,Light Snow,0,2013-11-23 16:20:00
7:53 AM,-4.0,-9.0,79,29.60,2.0,West,4.6,-,N/A,Snow,Light Snow,260,2013-11-23 16:53:00
8:07 AM,-4.0,-7.6,85,29.40,1.0,Calm,Calm,-,N/A,Snow,Light Snow,0,2013-11-23 17:07:00
8:53 AM,-0.9,-6.0,79,29.63,1.0,Variable,3.5,-,N/A,Snow,Light Snow,0,2013-11-23 17:53:00
9:05 AM,-0.4,-5.8,78,29.42,3.0,WNW,4.6,-,N/A,Snow,Light Snow,300,2013-11-23 18:05:00
9:53 AM,1.9,-2.9,80,29.70,10.0,WNW,4.6,-,N/A,,Mostly Cloudy,300,2013-11-23 18:53:00
10:53 AM,-0.0,-5.1,79,29.76,10.0,Calm,Calm,-,N/A,,Mostly Cloudy,0,2013-11-23 19:53:00
11:53 AM,3.0,-2.0,80,29.83,10.0,SSW,4.6,-,N/A,,Mostly Cloudy,210,2013-11-23 20:53:00
12:53 PM,5.0,-0.0,80,29.87,10.0,Calm,Calm,-,N/A,,Mostly Cloudy,0,2013-11-23 21:53:00
1:53 PM,5.0,-0.0,80,29.93,10.0,SW,3.5,-,N/A,,Mostly Cloudy,220,2013-11-23 22:53:00
2:53 PM,1.9,-2.0,83,29.98,10.0,East,5.8,-,N/A,,Mostly Cloudy,90,2013-11-23 23:53:00
3:53 PM,-0.0,-4.0,83,30.03,10.0,ESE,5.8,-,N/A,,Mostly Cloudy,120,2013-11-24 00:53:00
4:53 PM,-0.0,-5.1,79,30.07,10.0,East,3.5,-,N/A,,Scattered Clouds,100,2013-11-24 01:53:00
5:53 PM,-2.0,-7.1,79,30.10,10.0,East,4.6,-,N/A,,Scattered Clouds,100,2013-11-24 02:53:00
6:53 PM,-2.9,-7.1,82,30.13,10.0,East,4.6,-,N/A,,Clear,90,2013-11-24 03:53:00
7:53 PM,-2.9,-7.1,82,30.15,10.0,ESE,6.9,-,N/A,,Clear,120,2013-11-24 04:53:00
8:53 PM,-0.9,-6.0,79,30.16,10.0,ESE,4.6,-,N/A,,Clear,110,2013-11-24 05:53:00
9:53 PM,-5.1,-9.0,83,30.19,10.0,Calm,Calm,-,N/A,,Scattered Clouds,0,2013-11-24 06:53:00
10:53 PM,-9.0,-13.0,83,30.22,10.0,Calm,Calm,-,N/A,,Mostly Cloudy,0,2013-11-24 07:53:00
11:53 PM,-8.0,-13.0,79,30.24,10.0,Calm,Calm,-,N/A,,Mostly Cloudy,0,2013-11-24 08:53:00